Voltar ao catálogo

STARLINK-3320

AtivoComunicaçõesVLEO
NORAD 50839·PAYLOAD·🇺🇸 United States

Lançado Jan 6, 2022 de Cape Canaveral Space Force Station

Loading…

Próximas Passagens (próximas 24 horas)

TLE

AtualizadoSource: CelesTrak SupGP

Época: Sep 14, 2026, 19:56 UTC

1 50839C 22001AN  26257.83104167  .00054324  00000+0  17473-2 0  2570
2 50839  53.1589  36.1547 0001053  80.2522  62.4053 15.31668518    17

Acompanhe STARLINK-3320 em tempo real com AllMySat

Download on the App Store